Regional Weather Roundup
Issued by NWS

Home | Current Version | Previous Version | Graphics & Text | Print | Product List | Glossary On
Versions: 1 2 3 4 5 6 7 8 9 10 11 12 13 14 15 16 17 18 19 20 21 22 23 24 25 26 27 28 29 30 31 32 33 34 35 36 37 38 39 40 41 42 43 44 45 46 47 48 49 50
907
ASUS43 KFSD 291710
RWRSD

WEATHER ROUNDUP FOR SOUTH DAKOTA
NATIONAL WEATHER SERVICE SIOUX FALLS SD
1200 PM CDT WED MAR 29 2017

NOTE: "FAIR" INDICATES FEW OR NO CLOUDS BELOW 12,000 FEET WITH NO
SIGNIFICANT WEATHER AND/OR OBSTRUCTIONS TO VISIBILITY.


SDZ001>005-009-010-012>017-291800-
NORTHWEST AND NORTH CENTRAL SOUTH DAKOTA

CITY           SKY/WX    TMP DP  RH WIND       PRES   REMARKS
BUFFALO          N/A     50  43  77 SW6       30.01F
FAITH            N/A     51  43  74 MISG      30.09S
MOBRIDGE       SUNNY     58  39  49 S9        30.08F
$$

SDZ012>016-024>037-041>051-057-063-072>074-291800-
SOUTHWEST AND SOUTH CENTRAL SOUTH DAKOTA

CITY           SKY/WX    TMP DP  RH WIND       PRES   REMARKS
RAPID CTY ARPT PTSUNNY   50  42  74 NE6       30.09S
PIERRE         MOSUNNY   57  41  55 VRB3      30.10F
CUSTER         MOSUNNY   47  34  60 E5        30.07F
ELLSWORTH AFB  MOSUNNY   46  44  92 VRB6      30.09
PHILIP         MOSUNNY   50  44  80 SE7       30.10F
PINE RIDGE     CLOUDY    47  41  80 SW5       30.10F
SPEARFISH      FAIR      50  34  53 N7        30.09S
WINNER         PTSUNNY   54  44  69 NE6       30.10F
$$

SDZ004>011-016>023-039-040-291800-
NORTHEAST SOUTH DAKOTA

CITY           SKY/WX    TMP DP  RH WIND       PRES   REMARKS
ABERDEEN       MOSUNNY   54  36  50 SE7       30.13F
WATERTOWN      CLOUDY    53  37  54 SE10      30.14F
BROOKINGS      CLOUDY    51  38  60 SE10      30.13F
SISSETON         N/A     52  41  66 SE8       30.15F
$$

SDZ017-020-022-023-036>040-048>070-291800-
SOUTHEAST SOUTH DAKOTA

CITY           SKY/WX    TMP DP  RH WIND       PRES   REMARKS
SIOUX FALLS    LGT RAIN  48  42  80 E17       30.14S
HURON          CLOUDY    55  38  52 MISG      30.12F
CHAMBERLAIN    CLOUDY    56  41  56 NE8G16    30.10F
MITCHELL       CLOUDY    51  40  65 SE15G23   30.14S
YANKTON        CLOUDY    46  41  81 NE16      30.10F
$$

ABBREVIATIONS USED IN REMARKS
   TC - TEMPERATURE IN CELSIUS
  WCI - WIND CHILL INDEX
   HX - HEAT INDEX
  VSB - VISIBILITY





USA.gov is the U.S. government's official web portal to all federal, state and local government web resources and services.